Simultaneous Nadir Overpasses (SNOs) Predictions

Prediction of SNOs between NPP and TERRA Satellite Orbit:

Table of predicted SNOs for the next 14.0 days since TLE Epoch: 10/17/2015
Index Date (NPP) Time (NPP) Lat,Lon (NPP) SZA (NPP ) Date (TERRA) Time (TERRA) Lat,Lon (TERRA) SZA (TERRA ) Distance(km) Time Diff (sec)
1 10/18/2015 01:17:36 -68.68, -20.35 101.97 10/18/2015 01:18:18 -68.67, -20.41 101.98 2.41 42
2 10/18/2015 02:08:20 68.55, 147.13 77.91 10/18/2015 02:07:45 68.57, 147.11 77.93 2.24 35
3 10/20/2015 16:44:01 69.48, -73.00 79.77 10/20/2015 16:45:09 69.34, -71.31 79.67 67.58 68
4 10/20/2015 17:34:29 -68.65, 95.46 101.04 10/20/2015 17:34:50 -68.63, 95.40 101.06 3.34 21
5 10/20/2015 18:25:13 68.52, -97.07 78.86 10/20/2015 18:24:17 68.52, -97.09 78.84 0.97 56
6 10/23/2015 09:00:40 68.71, 43.83 79.96 10/23/2015 09:01:51 68.73, 43.76 79.98 3.60 71
7 10/23/2015 09:51:22 -68.62,-148.74 100.11 10/23/2015 09:51:21 -68.62,-148.73 100.12 0.13 1
8 10/23/2015 10:42:03 68.34, 18.94 79.63 10/23/2015 10:40:50 68.40, 18.64 79.67 14.09 73
9 10/26/2015 01:17:33 68.69, 159.63 80.87 10/26/2015 01:18:22 68.70, 159.61 80.89 1.99 49
10 10/26/2015 02:08:15 -68.60, -32.94 99.21 10/26/2015 02:07:52 -68.60, -32.89 99.21 2.08 23
11 10/26/2015 02:58:42 67.56, 135.67 79.80 10/26/2015 02:57:35 67.59, 133.57 79.78 89.35 67
12 10/28/2015 17:34:25 68.67, -84.59 81.77 10/28/2015 17:34:52 68.67, -84.57 81.76 0.93 27
13 10/28/2015 18:25:06 -68.52, 82.93
